Time,TemperatureF,DewpointF,PressureIn,WindDirection,WindDirectionDegrees,WindSpeedMPH,WindSpeedGustMPH,Humidity,HourlyPrecipIn,Conditions,Clouds,dailyrainin,SolarRadiationWatts/m^2,SoftwareType,DateUTC
2013-01-09 00:09:00,31.5,20.0,30.35,WSW,246,0.0,2.0,62,0.00,,CLR,0.00,0.00,VWS V14.01,2013-01-09 05:09:00,
2013-01-09 00:19:00,31.4,19.9,30.35,WSW,246,0.0,1.0,62,0.00,,CLR,0.00,0.00,VWS V14.01,2013-01-09 05:19:00,
2013-01-09 00:29:00,31.3,19.8,30.35,WSW,245,1.0,3.0,62,0.00,,CLR,0.00,0.00,VWS V14.01,2013-01-09 05:29:00,
2013-01-09 00:39:00,31.0,19.5,30.34,WSW,246,0.0,3.0,62,0.00,,CLR,0.00,0.00,VWS V14.01,2013-01-09 05:39:00,
2013-01-09 00:49:00,30.7,19.2,30.34,WSW,246,0.0,2.0,62,0.00,,CLR,0.00,0.00,VWS V14.01,2013-01-09 05:49:00,
2013-01-09 00:59:00,30.3,19.2,30.34,WSW,246,1.0,2.0,63,0.00,,CLR,0.00,0.00,VWS V14.01,2013-01-09 05:59:00,
2013-01-09 01:09:00,30.3,19.6,30.33,WSW,245,0.0,3.0,64,0.00,,CLR,0.00,0.00,VWS V14.01,2013-01-09 06:09:00,
2013-01-09 01:19:00,30.3,19.6,30.34,WSW,246,0.0,1.0,64,0.00,,CLR,0.00,0.00,VWS V14.01,2013-01-09 06:19:00,
2013-01-09 01:29:00,30.6,19.5,30.34,WSW,245,0.0,1.0,63,0.00,,CLR,0.00,0.00,VWS V14.01,2013-01-09 06:29:00,
2013-01-09 01:39:00,30.8,19.7,30.35,WSW,246,0.0,1.0,63,0.00,,CLR,0.00,0.00,VWS V14.01,2013-01-09 06:39:00,
2013-01-09 01:49:00,30.9,19.8,30.34,WSW,246,0.0,1.0,63,0.00,,CLR,0.00,0.00,VWS V14.01,2013-01-09 06:49:00,
2013-01-09 01:59:00,30.9,19.8,30.35,WSW,246,0.0,0.0,63,0.00,,CLR,0.00,0.00,VWS V14.01,2013-01-09 06:59:00,
2013-01-09 02:09:00,30.9,19.8,30.34,WSW,245,0.0,2.0,63,0.00,,CLR,0.00,0.00,VWS V14.01,2013-01-09 07:09:00,
2013-01-09 02:19:00,30.8,19.7,30.34,WSW,245,0.0,2.0,63,0.00,,CLR,0.00,0.00,VWS V14.01,2013-01-09 07:19:00,
2013-01-09 02:29:00,30.5,19.8,30.34,WSW,246,1.0,2.0,64,0.00,,CLR,0.00,0.00,VWS V14.01,2013-01-09 07:29:00,
2013-01-09 02:39:00,30.3,19.6,30.34,WSW,246,0.0,3.0,64,0.00,,CLR,0.00,0.00,VWS V14.01,2013-01-09 07:39:00,
2013-01-09 02:49:00,29.8,19.5,30.33,WSW,245,0.0,1.0,65,0.00,,CLR,0.00,0.00,VWS V14.01,2013-01-09 07:49:00,
2013-01-09 02:59:00,29.7,19.4,30.33,WSW,245,0.0,0.0,65,0.00,,CLR,0.00,0.00,VWS V14.01,2013-01-09 07:59:00,
2013-01-09 03:09:00,29.6,19.6,30.33,WSW,245,0.0,0.0,66,0.00,,CLR,0.00,0.00,VWS V14.01,2013-01-09 08:09:00,
2013-01-09 03:19:00,29.9,19.6,30.33,WSW,245,0.0,0.0,65,0.00,,CLR,0.00,0.00,VWS V14.01,2013-01-09 08:19:00,